Warwick, RI

2:43 PM EDT on September 27, 2016 (GMT -0400)
Green State

Weather History for KPVD - June, 2013

Change the Weather History Date:

Monday, June 10, 2013

  Actual Average Record
Temperature  
Mean Temperature 64 °F 66 °F  
Max Temperature 71 °F 76 °F 96 °F (2008)
Min Temperature 57 °F 57 °F 43 °F (1957)
Degree Days  
Heating Degree Days 1 2  
Month to date heating degree days 15 26  
Since 1 June heating degree days 15 26  
Since 1 July heating degree days 5309 5601  
Cooling Degree Days 0 3  
Month to date cooling degree days 33 26  
Year to date cooling degree days 77 52  
Since 1 June cooling degree days 33 26  
Growing Degree Days 14 (Base 50)    
Moisture  
Dew Point 58 °F    
Average Humidity 79    
Maximum Humidity 97    
Minimum Humidity 61    
Precipitation  
Precipitation 1.45 in 0.14 in 1.65 in (1977)
Month to date precipitation 6.34 1.42  
Year to date precipitation 20.94 21.49  
Snow  
Snow 0.00 in 0.00 in 0.00 in (2002)
Month to date snowfall 0.0 0.0  
Since 1 June snowfall 0.0 0.0  
Since 1 July snowfall 46.3 33.8  
Snow Depth 0.00 in    
Sea Level Pressure  
Sea Level Pressure 30.11 in    
Wind  
Wind Speed 5 mph (East)    
Max Wind Speed 13 mph    
Max Gust Speed 21 mph    
Visibility 7 miles    
Events Rain    
T = Trace of Precipitation, MM = Missing Value Source: NWS Daily Summary

Daily Weather History Graph

Daily Weather History Graph

Search for Another Location

Airport or City:

Trip Planner

Search our weather history database for the weather conditions in past years. The results will help you decide how hot, cold, wet, or windy it might be!

Date:

Astronomy

Jun. 10, 2013 Rise Set
Actual Time 5:10 AM EDT 8:19 PM EDT
Civil Twilight 4:36 AM EDT 8:53 PM EDT
Nautical Twilight 3:53 AM EDT 9:37 PM EDT
Astronomical Twilight 3:01 AM EDT 10:29 PM EDT
Moon 6:57 AM EDT (6/10) 9:43 PM EDT (6/10)
Length of Visible Light 16h 17m
Length of Day
15h 09m
Waxing Crescent, 4% of the Moon is Illuminated
Jun 10
Waxing Crescent
Jun 16
First Quarter
Jun 23
Full
Jun 30
Last Quarter
Jul 8
New

Hourly Weather History & Observations

Time (EDT) Temp. Dew Point Humidity Pressure Visibility Wind Dir Wind Speed Gust Speed Precip Events Conditions
12:51 AM 64.0 °F 57.9 °F 80% 30.18 in 10.0 mi West 6.9 mph - N/A   Clear
1:51 AM 63.0 °F 57.0 °F 81% 30.18 in 10.0 mi Calm Calm - N/A   Clear
2:51 AM 61.0 °F 57.0 °F 87% 30.18 in 10.0 mi West 3.5 mph - N/A   Clear
3:51 AM 60.1 °F 55.9 °F 86% 30.17 in 10.0 mi Calm Calm - N/A   Clear
4:51 AM 60.1 °F 57.0 °F 90% 30.18 in 10.0 mi Calm Calm - N/A   Clear
5:51 AM 57.9 °F 55.9 °F 93% 30.19 in 9.0 mi SSW 3.5 mph - N/A   Scattered Clouds
6:51 AM 62.1 °F 57.0 °F 84% 30.19 in 10.0 mi Calm Calm - N/A   Mostly Cloudy
7:51 AM 66.9 °F 57.0 °F 70% 30.19 in 10.0 mi Calm Calm - N/A   Scattered Clouds
8:51 AM 68.0 °F 55.9 °F 65% 30.19 in 10.0 mi ENE 3.5 mph - N/A   Mostly Cloudy
9:51 AM 69.1 °F 55.9 °F 63% 30.20 in 10.0 mi Calm Calm - N/A   Mostly Cloudy
10:51 AM 69.1 °F 57.9 °F 68% 30.18 in 10.0 mi NE 4.6 mph - N/A   Overcast
11:51 AM 71.1 °F 57.9 °F 63% 30.19 in 10.0 mi East 3.5 mph - N/A   Overcast
12:51 PM 70.0 °F 60.1 °F 71% 30.18 in 10.0 mi ENE 5.8 mph - 0.00 in Rain Light Rain
1:51 PM 70.0 °F 61.0 °F 73% 30.17 in 10.0 mi ENE 8.1 mph - 0.00 in Rain Light Rain
2:51 PM 69.1 °F 61.0 °F 75% 30.16 in 10.0 mi East 6.9 mph - 0.00 in Rain Light Rain
3:51 PM 69.1 °F 61.0 °F 75% 30.14 in 10.0 mi ESE 6.9 mph - 0.00 in   Overcast
4:51 PM 66.9 °F 59.0 °F 76% 30.12 in 10.0 mi ESE 6.9 mph - 0.00 in Rain Light Rain
5:51 PM 66.0 °F 59.0 °F 78% 30.10 in 10.0 mi ESE 5.8 mph - 0.00 in Rain Light Rain
6:51 PM 63.0 °F 60.1 °F 90% 30.09 in 9.0 mi East 6.9 mph - 0.04 in Rain Light Rain
7:51 PM 62.1 °F 60.1 °F 93% 30.07 in 4.0 mi East 9.2 mph - 0.10 in Rain Rain
8:37 PM 60.8 °F 59.0 °F 94% 30.05 in 5.0 mi East 6.9 mph - 0.08 in Rain Rain
8:51 PM 61.0 °F 59.0 °F 93% 30.04 in 2.5 mi East 10.4 mph - 0.15 in Rain Heavy Rain
9:05 PM 60.8 °F 57.2 °F 88% 30.03 in 3.0 mi East 11.5 mph - 0.11 in Rain Rain
9:16 PM 60.8 °F 57.2 °F 88% 30.03 in 3.0 mi East 9.2 mph - 0.14 in Rain Rain
9:48 PM 60.8 °F 57.2 °F 88% 30.03 in 5.0 mi ENE 6.9 mph 16.1 mph 0.26 in Rain Rain
9:51 PM 60.1 °F 57.9 °F 93% 30.03 in 5.0 mi East 6.9 mph - 0.27 in Rain Rain
10:14 PM 60.8 °F 59.0 °F 94% 30.03 in 2.0 mi ENE 5.8 mph - 0.18 in Rain Heavy Rain
10:29 PM 60.8 °F 57.2 °F 88% 30.02 in 1.8 mi East 8.1 mph - 0.38 in Rain Heavy Rain
10:39 PM 60.8 °F 57.2 °F 88% 30.02 in 3.0 mi East 6.9 mph - 0.46 in Rain Heavy Rain
10:51 PM 60.1 °F 57.9 °F 93% 30.03 in 2.5 mi ESE 8.1 mph - 0.53 in Rain Heavy Rain
11:01 PM 60.8 °F 57.2 °F 88% 30.02 in 3.0 mi East 8.1 mph - 0.05 in Rain Rain
11:38 PM 60.8 °F 57.2 °F 88% 30.00 in 5.0 mi East 8.1 mph - 0.19 in Rain Rain
11:49 PM 59.0 °F 57.2 °F 94% 29.99 in 5.0 mi ENE 8.1 mph - 0.21 in Rain Rain
11:51 PM 59.0 °F 57.9 °F 96% 29.99 in 5.0 mi East 9.2 mph - 0.22 in Rain Rain